Daftar Peserta Sertifikasi Microsoft Office Specialist Tahun Pelajaran 2017/2018

Daftar Peserta Sertifikasi Microsoft Office Specialist

Tahun Pelajaran 2017/2018

XII BROADCASTING 1

 
No Nama Siswa NIPD P/L NISN Tempat Tanggal Lahir Rombel
1 Adinda Pratiwi 1516100521 P 0003934101 Depok 2000-06-06 XII BRC 1
2 Adinda Rizky Widyanti 1516100522 P 0003931810 Jakarta 2000-01-19 XII BRC 1
3 Agung Nugroho 1516100523 L 0006149964 Depok 2000-08-06 XII BRC 1
4 Alifah Amalia 1516100524 P 0000814400 Depok 2000-10-28 XII BRC 1
5 Amanda Widiyati 1516100525 P 0007793279 Jakarta 2000-03-10 XII BRC 1
6 Ambar Fauji 1516100526 L 0003856633 Depok 2000-06-08 XII BRC 1
7 Anisya Triani Agustin 1516100527 P 0007570854 Bogor 2000-08-29 XII BRC 1
8 Aprilia Diah Ayu Margareta Putri Adi 1516100528 P 0002574094 Boyolali 2000-03-31 XII BRC 1
9 Aura Nur Zakiah Putri 1516100529 P 0003912694 Jakarta 2000-08-27 XII BRC 1
10 Deriana Natalia 1516100531 P 9997034532 Jakarta 1999-12-25 XII BRC 1
11 Dytia Tasya Zahrantiara 1516100532 P 0003916347 Kuningan 2000-03-25 XII BRC 1
12 Elsa Justicia Perkasa 1516100533 P 0004238369 Depok 2000-03-26 XII BRC 1
13 Fathiyah Husna Izzati 1516100534 P 0006254869 Depok 2000-07-24 XII BRC 1
14 Fitri Dwiyanti 1516100536 P 0003913820 Bogor 2000-01-23 XII BRC 1
15 Gladys Novelerine 1516100537 P 9998936645 Depok 1999-11-23 XII BRC 1
16 Idfiana Eka Bhakti 1516100538 P 0005799037 Purworejo 2000-01-08 XII BRC 1
17 Indah Luthfitriani 1516100539 P 9995117105 Depok 1999-12-28 XII BRC 1
18 Inggit Nugraheny 1516100540 P 9995599205 Jakarta 1999-09-13 XII BRC 1
19 Kaifa Ayu Ammar 1516100541 P 0005799215 Depok 2000-05-13 XII BRC 1
20 Khofifah Indah Parawangsa 1516100542 P 0008938192 Gresik 2000-03-04 XII BRC 1
21 Lia Khoirunnisa 1516100543 P 9997456935 Jakarta 1999-11-01 XII BRC 1
22 Maghfirotu Syakinah 1516100544 P 0003912364 Depok 2000-11-17 XII BRC 1
23 Muhammad Nur Hakim 1516100545 P 9995112333 Parung Bogor 1999-06-20 XII BRC 1
24 Nadya Desti Cahyani 1516100546 P 9995056497 Depok 1999-12-12 XII BRC 1
25 Nisrina Nur Aini 1516100547 P 0000814424 Depok 2000-08-02 XII BRC 1
26 Nurpaizah 1516100548 P 9995469162 Bogor 1999-12-14 XII BRC 1
27 Putri Kusumawati 1516100549 P 0006376275 Bogor 2000-03-10 XII BRC 1
28 Rifqi Firmansyah 1516100550 L 0008588126 Jakarta 2000-06-27 XII BRC 1
29 Riri Wulandari 1516100551 P 0007570789 Depok 2000-01-15 XII BRC 1
30 Salsabila Firdausya 1516100552 P 0003933268 Jakarta 2000-10-07 XII BRC 1
31 Sri Soffiyah 1516100554 P 9988227617 Jakarta 1998-08-19 XII BRC 1
32 Syahdan Tandjung 1516100555 L 0003616141 Jakarta 2000-07-20 XII BRC 1
33 Topan Indra Kusmana 1516100557 L 0009867068 Depok 2000-08-26 XII BRC 1
34 Tya Hidayanti Dea Saputri 1516100556 P 0021292306 Banjarnegara 2000-06-21 XII BRC 1
35 Tyara Dwipuri Milanita 1516100558 P 0003438353 Bekasi 2000-07-22 XII BRC 1
36 Viryani Justicia 1516100559 P 0004238373 Depok 2000-03-30 XII BRC 1
37 Yulviani Aprilla Putri 1516100560 P 0005799063 Magetan 2000-05-12 XII BRC 1

 

Daftar Peserta Sertifikasi Microsoft Office Specialist

Tahun Pelajaran 2017/2018

XII BROADCASTING 2

 
No Nama Siswa NIPD P/L NISN Tempat Tanggal Lahir Rombel
1 Ade Muhtaromin 1516100561 L 0003913493 Jakarta 2000-04-20 XII BRC 2
2 Adinda Tiara Pramaisela 1516100562 P 9992388983 Jakarta 1999-11-18 XII BRC 2
3 Adithia Bayu Wicaksono 1516100563 L 0007793276 Depok 2000-03-26 XII BRC 2
4 Akbar Wahyu Alamsyah 1516100564 L 0017339250 Jakarta 2001-01-26 XII BRC 2
5 Amanda Aurellia Putri 1516100565 P 0003615981 Jakarta 2000-08-15 XII BRC 2
6 Anisya Bela 1516100566 P 0003935275 Depok 2000-09-05 XII BRC 2
7 Annisa Rahmadani 1516100567 P 0002287463 Jakarta 2000-12-18 XII BRC 2
8 Arum Setyaningrum Putri Salsabilla 1516100568 P 0003616904 Depok 2000-01-30 XII BRC 2
9 Aya Morioka 1516100569 P 0000926864 Jakarta 2000-04-04 XII BRC 2
10 Daffa Pamalunda Lupang Rukmana 1516100570 P 0003856021 Depok 2000-03-08 XII BRC 2
11 Dexie Adella Salza Dewayani Sukatno 1516100571 P 0010832114 Depok 2001-01-07 XII BRC 2
12 Ellia Puspita 1516100572 P 0003913497 Sumedang 2000-05-06 XII BRC 2
13 Ervi Cahya Ramadhani 1516100573 P 0006343049 Lampung 2000-12-12 XII BRC 2
14 Fifin Eka Lestari 1516100575 P 0006376309 Depok 2000-08-05 XII BRC 2
15 Fitrokh Nur Ikhrom 1516100576 P 0005841418 Purbalingga 2000-05-12 XII BRC 2
16 Heru Kasyanto 1516100577 L 0000814204 Depok 2000-05-21 XII BRC 2
17 Hikmah Hanifah 1516100578 P 0003934806 Depok 2000-05-19 XII BRC 2
18 Indah Maydini 1516100580 P 0003858206 Depok 2000-05-13 XII BRC 2
19 Julieta Citra Monica 1516100581 P 0006255307 Jakarta 2000-07-07 XII BRC 2
20 Kirana Putri Eka Nurshadrina 1516100582 P 0001863519 Jakarta 2000-03-29 XII BRC 2
21 Lilintang Ravangastha Viragupti 1516100583 P 0003856012 Bogor 2000-11-18 XII BRC 2
22 Lintang Aditya 1516100584 L 0007570841 Bogor 2000-06-25 XII BRC 2
23 Milenia Liza Tanaya 1516100585 P 0005796861 Depok 2000-04-26 XII BRC 2
24 Nadya Yuniar 1516100586 P 0005798819 Jakarta 2000-06-16 XII BRC 2
25 Novi Dwi Hilda Ningrum 1516100587 P 9997034804 Depok 1999-11-29 XII BRC 2
26 Puspita Nada Ramadhan 1516100588 P 9996878901 Depok 1999-12-14 XII BRC 2
27 Rahma Yulianti 1516100589 P 9990829089 Cianjur 1999-07-24 XII BRC 2
28 Ramadhan Bagus Mandiri 1516100590 L 0005067455 Bekasi 1999-12-21 XII BRC 2
29 Rivani 1516100592 P 9990773609 Jakarta 1999-09-14 XII BRC 2
30 Salsabila Harbee Putri 1516100593 P 0007744209 Jakarta 2000-08-18 XII BRC 2
31 Sitta Nabira 1516100594 P 0004238363 Depok 2000-03-14 XII BRC 2
32 Sugita Asa Fitri 1516100595 P 0010072350 Tegal 2001-01-06 XII BRC 2
33 Tri Nur Cayani 1516100597 P 0000814438 Jakarta 2000-06-03 XII BRC 2
34 Vindy Sari 1516100598 P 0003935138 Depok 2000-01-18 XII BRC 2
35 Virly Dwi Arya Gemilang 1516100599 L 0001338008 Jakarta 2000-08-28 XII BRC 2
36 Zulfiana 1516100601 P 0007570845 Jakarta 2000-07-10 XII BRC 2

 

Daftar Peserta Sertifikasi Microsoft Office Specialist

Tahun Pelajaran 2017/2018

XII MULTIMEDIA 1

 
No Nama Siswa NIPD P/L NISN Tempat Tanggal Lahir Rombel
1 Adam Muhammad Faisal 1516100397 L 0001108270 Jakarta 2000-04-29 XII MM 1
2 Ade Ajeng Puspaningrum 1516100398 P 0004753096 Depok 2000-11-07 XII MM 1
3 Adit Tri Laksana Putra 1516100399 L 0003935254 Wonogiri 2000-04-13 XII MM 1
4 Alfina Damayanti Chaniago 1516100400 P 0007570868 Depok 2001-11-04 XII MM 1
5 Alisa Renata Dolok Saribu 1516100401 P 9997559035 Jakarta 1999-10-02 XII MM 1
6 Alya Rosaliani Rohadi 1516100402 P 0003616159 Jakarta 2000-09-06 XII MM 1
7 Annisa Akmal Fauziah 1516100403 P 0003305311 Indramayu 2000-07-28 XII MM 1
8 Aprilia 1516100404 P 0004393147 Jakarta 2000-04-20 XII MM 1
9 Bangkit Gilar Aryo Pamungkas 1516100405 L 0003897703 Depok 1999-09-02 XII MM 1
10 Chilvia Nabillah 1516100406 P 0000814405 Bogor 2000-05-31 XII MM 1
11 Daru Muji Pangesti 1516100407 P 9997034744 Depok 1999-06-03 XII MM 1
12 Devi Novitasari 1516100408 P 0009567679 Bojonegoro 2000-12-25 XII MM 1
13 Dinda Meilani Putri 1516100409 P 9984991423 Bogor 1998-05-13 XII MM 1
14 Dita Rizky Aprillia 1516100410 P 0005734769 Depok 2000-04-19 XII MM 1
15 Ella Retno Palupi 1516100411 P 9980520479 Bojonegoro 1999-02-24 XII MM 1
16 Erry Khaidar Ravi 1516100412 L 0004856603 Jakarta 2000-10-09 XII MM 1
17 Febrian Utomo Putro 1516100413 L 0006375254 Depok 2000-02-12 XII MM 1
18 Fitri Azaly Rahmawati 1516100414 P 0004752786 Jakarta 2000-12-18 XII MM 1
19 Harmi Noviyanti 1516100415 P 9995132709 Jakarta 1999-11-28 XII MM 1
20 Imelda Arya Aprilia 1516100416 P 0004296577 Depok 2000-04-25 XII MM 1
21 Irvan Rizky Zulkarnain 1516100417 L 0003931576 Depok 1999-11-12 XII MM 1
22 Kania Choirunisa 1516100418 P 0007570884 Jakarta 2000-12-30 XII MM 1
23 Kurnia Laelatul Arba 1516100419 P 0014090472 Depok 2001-01-24 XII MM 1
24 Luvita Widiany 1516100420 P 0003912685 Jakarta 2000-07-05 XII MM 1
25 Mitha Arisandi 1516100421 P 0006354716 Jakarta 2000-02-05 XII MM 1
26 Mohamad Nasrul Ramadhan 1516100422 L 0003910603 Kebumen 2000-01-01 XII MM 1
27 Muhamad Ilyas Renakit 1516100423 L 0001357792 Jakarta 2000-02-19 XII MM 1
28 Muhammad Hamzah Rahmatulloh 1516100424 L 0003858236 Jakarta 2000-09-29 XII MM 1
29 Muhammad Rizky Firmansyah 1516100425 L 9996878890 Depok 1999-10-04 XII MM 1
30 Nadia Rahmawati 1516100426 P 0003935300 Depok 2000-08-20 XII MM 1
31 Novia Dwi Pratiwi 1516100427 P 9996878893 Depok 1999-11-07 XII MM 1
32 Nur Oktafiani Putri 1516100428 L 0003935337 Jakarta 2000-10-12 XII MM 1
33 Paula Maria Christina Nggoe 1516100429 P 0005798858 Jakarta 2000-09-18 XII MM 1
34 Putri Rafifah Salsabila 1516100430 P 0012257054 Depok 2001-04-18 XII MM 1
35 Reksa Alvia Adzani 1516100431 L 0001357808 Jakarta 2000-06-19 XII MM 1
36 RR Cristina Endang K 1516100432 P 9997034507 Depok 1999-09-27 XII MM 1
37 Singgih Mukhadis 1516100433 L 0003933260 Depok 2000-06-05 XII MM 1
38 Siti Khodijah 1516100434 P 0017584064 Bogor 2001-01-12 XII MM 1
39 Tri Maryani Muslimah 1516100435 L 9995113280 Bogor 1999-03-12 XII MM 1
40 Yusi Asma Riski Aulia 1516100437 P 9995132706 Depok 1999-11-24 XII MM 1
41 Zhemma Michael Marthen Rupilu 1516100438 L 0003918383 Depok 2000-04-21 XII MM 1

 

Daftar Peserta Sertifikasi Microsoft Office Specialist

Tahun Pelajaran 2017/2018

XII MULTIMEDIA 2

 
No Nama Siswa NIPD P/L NISN Tempat Tanggal Lahir Rombel
1 Afrah Atsilah Fauzam 1516100440 P 0011051465 Depok 2000-02-22 XII MM 2
2 Agam Maulana 1516100441 L 9998665633 Bogor 1999-01-25 XII MM 2
3 Alimatuts Satdiah 1516100442 P 9995134087 Jakarta 1999-09-27 XII MM 2
4 Alvian Dzulmart Abimanyu 1516100443 L 0008859797 Jakarta 2000-03-31 XII MM 2
5 Anggi Nur Febriany 1516100444 P 0003970618 Depok 2000-02-27 XII MM 2
6 Annisa Adzanis Salsabila 1516100445 P 0008087039 Depok 2000-04-12 XII MM 2
7 Ardita Eka Putri 1516100446 P 0003913520 Jakarta 2000-07-14 XII MM 2
8 Danya Setyo Nastiti 1516100447 P 0006255193 Depok 1999-07-25 XII MM 2
9 De Valeri 1516100448 L 0003916401 Jakarta 2000-10-14 XII MM 2
10 Deftania Annissa 1516100449 P 0001249136 Depok 2000-07-23 XII MM 2
11 Dewi Sekar Taji 1516100450 P 0003917510 Depok 2000-06-30 XII MM 2
12 Ditha Angraini 1516100452 P 0003917496 Jakarta 2000-06-07 XII MM 2
13 Elvira Novitasari 1516100453 P 0003933664 Boyolali 2000-11-10 XII MM 2
14 Fajar Bagus Priambudi 1516100454 L 0003934830 Kebumen 2000-08-07 XII MM 2
15 Ghina Ambarrona Rosita 1516100455 P 0004558409 Jakarta 2000-11-22 XII MM 2
16 Ika Komalasari 1516100456 P 0006319224 Sukabumi 2000-04-23 XII MM 2
17 Imam Prasetyo 1516100457 L 0003856663 Depok 2000-09-20 XII MM 2
18 Jihan Sharmila Rao 1516100458 P 0003935305 Tombang Bustak 2000-08-28 XII MM 2
19 Kinanti Cahyaning Putri 1516100459 P 0006070267 Depok 2000-07-10 XII MM 2
20 Lilla Anggraini 1516100460 P 0003935170 Depok 2000-04-16 XII MM 2
21 Maniko Ammri Faturohman 1516100461 L 0007570864 Depok 2000-08-27 XII MM 2
22 Melly Aulia Aryani 1516100462 P 0003897696 Depok 2000-07-31 XII MM 2
23 Muawiyah Luthfiani S 1516100463 P 0003616439 Jakarta 2000-10-18 XII MM 2
24 Mudrikhah May Sari 1516100464 P 0003913505 Depok 2000-05-25 XII MM 2
25 Muhamad Sukma Aditya 1516100465 L 0004391685 Depok 2000-04-10 XII MM 2
26 Muhammad Faiq Al Hakim 1516100467 L 0007793324 Jakarta 2000-10-10 XII MM 2
27 Muhammad Iqbal Husaini 1516100468 L 0000741160 Jakarta 2000-09-11 XII MM 2
28 Nanda Rizky Amaliya 1516100469 P 0007793306 Depok 2000-07-23 XII MM 2
29 Nurazlina Eka Safitri 1516100471 P 9991906185 Jakarta 1999-05-25 XII MM 2
30 Popon Chintya 1516100472 P 0003912666 Subang 2000-03-18 XII MM 2
31 Rendy Caniago 1516100473 L 0002460791 Jakarta 2000-02-24 XII MM 2
32 Ririn Sabrina 1516100474 P 0003872098 Depok 2000-05-24 XII MM 2
33 Sekar Aulia Putri 1516100475 P 0005798852 Depok 2000-09-03 XII MM 2
34 Syahrul Ramadani 1516100476 L 9995056496 Depok 1999-12-19 XII MM 2
35 Tiara Dwi Yunita 1516100477 P 0008679598 Jakarta 2000-06-30 XII MM 2
36 Umi Tuniasih 1516100478 P 0003935324 Pemalang 2000-04-12 XII MM 2
37 Wahyu Ibnu Taqi 1516100479 L 0017347683 Banyumas 2001-03-23 XII MM 2

 

Daftar Peserta Sertifikasi Microsoft Office Specialist

Tahun Pelajaran 2017/2018

XII MULTIMEDIA 3

 
No Nama Siswa NIPD P/L NISN Tempat Tanggal Lahir Rombel
1 Adiguna Jetavana Citra 1516100480 L 0006319368 Jakarta 2000-09-21 XII MM 3
2 Aisha Amelia Dewanti 1516100481 P 0012237215 Depok 2001-02-09 XII MM 3
3 Aisya Triani Agustin 1516100482 P 0007570853 Bogor 2000-08-29 XII MM 3
4 Al Mughni Nur Effendi 1516100483 L 0005796650 Depok 2000-08-30 XII MM 3
5 Alivia Sukma Pancarani 1516100484 P 0010874987 Jakarta 2001-02-02 XII MM 3
6 Anie Adhayani 1516100485 P 0005798590 Bogor 2000-03-16 XII MM 3
7 Annita Nurjannah 1516100486 P 0000813848 Jakarta 2000-04-12 XII MM 3
8 Ariesto Adyatma 1516100487 L 9995599196 Depok 1999-07-13 XII MM 3
9 Astuti 1516100488 P 9997034130 Bogor 1999-12-05 XII MM 3
10 Dara Citra Saputri 1516100489 P 9991906149 Jakarta 1999-11-20 XII MM 3
11 Della Mutiara 1516100490 P 9991583549 Bogor 2000-01-21 XII MM 3
12 Dian Putri Sholihah 1516100491 P 0006359822 Depok 2000-08-08 XII MM 3
13 Dinisya Irlia 1617110618 P 0005471654 Tangerang 2000-10-16 XII MM 3
14 Dita Ekklesia Manullang 1516100492 P 0004751534 Medan 2000-04-24 XII MM 3
15 Dwi Indah Astuti 1516100493 P 0003913825 Depok 2000-02-12 XII MM 3
16 Egy Setya Ramadhan 1516100494 L 0003615989 Depok 2000-01-06 XII MM 3
17 Faniel Ario Cahya 1516100495 L 0003872104 Jakarta 2000-05-14 XII MM 3
18 Fidia Alifiani 1516100496 P 0005656613 Depok 2000-01-30 XII MM 3
19 Habibillah Zulfa Nur Rahman 1516100497 P 0003917521 Depok 2000-07-26 XII MM 3
20 Ikah Pramestia 1516100498 P 9990968069 Subang 1999-10-06 XII MM 3
21 Irsan Wayhu Zulkarnain 1516100499 L 0003931602 Depok 1999-11-12 XII MM 3
22 Kamilah Zakiyah 1516100500 P 0001182408 Jakarta 2000-07-28 XII MM 3
23 Krisdamayanti 1516100501 P 9998755143 Bogor 1999-09-22 XII MM 3
24 Miftahul Huda 1516100503 L 0009857563 Depok 2000-08-08 XII MM 3
25 Milla Oktaviani 1516100504 P 9997034517 Jakarta 1999-10-18 XII MM 3
26 Muhamad Diaz Giffary 1516100505 L 9997034793 Depok 1999-10-27 XII MM 3
27 Muhamad Rafli 1516100506 L 0003868440 Jakarta 2000-06-15 XII MM 3
28 Muhammad Arfananda 1516100507 L 0005327468 Depok 2000-04-12 XII MM 3
29 Muhammad Noer Chandra Wijaya 1617110616 L 0006255147 Depok 2000-04-12 XII MM 3
30 Nabila Novianjani 1516100508 P 0000814422 Depok 2000-11-03 XII MM 3
31 Nilam Ayu Sekarsari 1516100509 P 9983228327 Bogor 1998-11-29 XII MM 3
32 Nur Asti Alivia 1516100510 P 0003935280 Bogor 2000-05-31 XII MM 3
33 Nurul Oktaviani 1516100511 P 0003913829 Depok 2000-10-15 XII MM 3
34 Puji Lestari 1516100512 P 0007570836 Depok 2000-06-08 XII MM 3
35 Ranutyas Djati Kusuma 1516100513 L 9991977272 Jakarta 1999-11-22 XII MM 3
36 Rizki Andriyansah 1516100514 L 0005796623 Depok 2000-05-10 XII MM 3
37 Rizska Fatwah 1516100515 P 0018949885 Jakarta 2001-01-13 XII MM 3
38 Sintia Kurniati 1516100516 P 9995056491 Depok 1999-11-23 XII MM 3
39 Totoh Dwipa Pangrestu 1516100517 L 9995131236 Depok 1999-11-04 XII MM 3
40 Tri Ayu Wulandari 1516100518 P 0005656611 Depok 2000-01-30 XII MM 3
41 Yuli Pratama Aldi 1516100519 L 0003919868 Gunung Kidul 2000-07-31 XII MM 3
42 Yulva Kurniawati 1516100520 P 0000714715 Grobogan 2000-04-11 XII MM 3

 

Daftar Peserta Sertifikasi Microsoft Office Specialist

Tahun Pelajaran 2017/2018

XII REKAYASA PERANGKAT LUNAK 1

 
No Nama Siswa NIPD P/L NISN Tempat Tanggal Lahir Rombel
1 Aditia Pebriansyah 1516100316 L 0007570799 Jakarta 2000-02-26 XII RPL 1
2 Ahmad Firmansyah 1516100317 L 9995056489 Depok 1999-11-12 XII RPL 1
3 Amelia 1516100318 P 9989884170 Bogor 1998-09-12 XII RPL 1
4 Anggito Abimanyu 1516100319 L 0008104213 Depok 2000-07-10 XII RPL 1
5 Annisa Edrian Fahlivi 1516100320 P 0016515271 Jakarta 2001-10-13 XII RPL 1
6 Arif Rizkan 1516100321 L 0004296598 Sumedang 2000-06-21 XII RPL 1
7 Bayu Nugroho 1516100322 L 9997893950 Jakarta 1999-06-05 XII RPL 1
8 Calvin Danny Karuwal 1516100323 L 0004238357 Jakarta 2000-02-24 XII RPL 1
9 Charles Krisnadwipayana Ubra 1516100324 L 9997456773 Bogor 1999-03-27 XII RPL 1
10 Dani Fikry Ramadhan 1516100325 L 0004627923 Depok 2000-11-29 XII RPL 1
11 Dio Alip Saputra 1516100326 L 0003935318 Bekasi 2000-10-19 XII RPL 1
12 Dwi Gita Sitorus 1516100327 P 0003912804 Depok 2000-01-12 XII RPL 1
13 Edou 1516100328 L 0003181168 Mekarjaya 2000-01-01 XII RPL 1
14 Endah Dwi Lestari 1516100329 P 0005798786 Jakarta 2000-03-31 XII RPL 1
15 Fahri Ardiansyah 1516100330 L 0003872152 Depok 2000-10-25 XII RPL 1
16 Fara Yolanda 1516100331 P 0001182399 Magetan 2000-05-08 XII RPL 1
17 Ferdian Dwi Nugroho 1516100332 L 0015232814 Depok 2001-02-06 XII RPL 1
18 Hafizh Fadhlurrohman 1516100333 L 0008896469 Depok 2000-08-08 XII RPL 1
19 Inge Arfatikka 1516100334 P 0001767596 Jakarta 2000-08-17 XII RPL 1
20 Jonatan Tegar Priambodo 1516100335 L 0006359807 Depok 2000-06-29 XII RPL 1
21 Khofifah 1516100336 P 0008082526 Jakarta 2000-04-13 XII RPL 1
22 Misbahul Huda 1516100337 L 0004390268 Depok 2000-06-20 XII RPL 1
23 Mohammad Andrian Riandi 1516100338 L 9996452283 Jakarta 1999-11-11 XII RPL 1
24 Muhammad Adam Alvareza 1516100339 L 0003935173 Depok 2000-04-20 XII RPL 1
25 Muhammad Andraesta 1516100340 L 0001545731 Jakarta 2000-05-30 XII RPL 1
26 Muhammad Fadli 1516100341 L 0005656610 Ngawi 2000-01-24 XII RPL 1
27 Muhammad Fahmi Fadhlurrohman 1516100342 L 0001863703 Jakarta 2000-01-27 XII RPL 1
28 Muhammad Nurohman 1516100343 L 0002097039 Jakarta 2000-09-28 XII RPL 1
29 Muhammad Rafi 1516100344 L 0004252743 Jakarta 2000-05-16 XII RPL 1
30 Muhammad Rifqi Imam Saputra 1516100345 L 0008882994 Jakarta 2000-08-13 XII RPL 1
31 Muhammad Yahya 1516100346 L 9992556542 Bogor 1999-12-24 XII RPL 1
32 Nisa Amelia Saputri 1516100347 P 0003931503 Bogor 2001-04-17 XII RPL 1
33 Panji Nurizky 1516100348 L 0005796839 Depok 2000-03-01 XII RPL 1
34 Rafi Razak 1516100349 L 9997034818 Depok 1999-12-24 XII RPL 1
35 Reza Pramudita Try Pamunngkas 1516100350 L 0003839518 Jakarta 2000-05-04 XII RPL 1
36 Riechmen Bona Putra Harahap 1516100351 L 0003933666 Depok 2000-10-15 XII RPL 1
37 Rizki Alamsyah 1516100352 L 0006255224 Jakarta 1999-10-08 XII RPL 1
38 Ronal 1516100353 L 0002910362 Depok 2000-11-02 XII RPL 1
39 Yoghiswara Devas 1516100354 L 0003931550 Jakarta 2000-08-02 XII RPL 1
40 Yolana Oktaviana 1516100355 P 0003912607 Depok 2000-10-15 XII RPL 1

 

Daftar Peserta Sertifikasi Microsoft Office Specialist

Tahun Pelajaran 2017/2018

XII REKAYASA PERANGKAT LUNAK 2

 
No Nama Siswa NIPD P/L NISN Tempat Tanggal Lahir Rombel
1 Adam Wahyu Ramdhani 1516100356 L 0003931438 Depok 2000-12-04 XII RPL 2
2 Aditya Ramadhani 1516100357 L 0003935814 Jakarta 2000-06-12 XII RPL 2
3 Agung Prabowo 1516100358 L 0009746557 Depok 2000-05-14 XII RPL 2
4 Anggi Wijaya 1516100359 L 0009711083 Tasikmalaya 2000-03-25 XII RPL 2
5 Anita Rosid 1516100360 P 0003934052 Bogor 2000-09-06 XII RPL 2
6 Aries Kadarisman 1516100361 L 9981018109 Garut 1998-04-20 XII RPL 2
7 Arif Septian Prasetyo 1516100362 L 9992388982 Depok 1999-09-24 XII RPL 2
8 Benny Wijaya 1516100363 L 9993479208 Jakarta 1999-12-07 XII RPL 2
9 Chairul Rahman Alhadi 1516100364 L 0003917469 Jakarta 2000-02-17 XII RPL 2
10 Danar Winanda 1516100365 L 0001524002 Purwakarta 2000-04-29 XII RPL 2
11 Dicky Tri Utomo 1516100366 L 0003913495 Jakarta 2000-05-05 XII RPL 2
12 Divana Rifky 1516100367 L 0003933662 Depok 2000-09-20 XII RPL 2
13 Dwi Nanda Sofanti 1516100368 P 0003912594 Jakarta 2000-06-19 XII RPL 2
14 Euis Nuraini 1516100369 P 9997034132 Depok 1999-12-18 XII RPL 2
15 Excel Dwi Oktavianto 1516100370 L 9984992329 Bogor 1999-10-28 XII RPL 2
16 Fauzi Setiawan Akbar 1516100371 L 0003935323 Jakarta 2000-11-06 XII RPL 2
17 Fazrian Darizky 1516100372 L 0004013554 Jakarta 2000-06-18 XII RPL 2
18 Feriawan Ikhsan Wicaksono 1516100373 L 0003899280 Depok 2000-07-04 XII RPL 2
19 Ibnu Arya Lukmana 1516100374 L 0005796853 Tangerang 2000-03-31 XII RPL 2
20 Indhira Sasadhara 1516100375 P 0005656650 Purworejo 2000-05-06 XII RPL 2
21 Josua Gibta Pratama Ginting 1516100376 L 0004751542 Depok 2000-05-24 XII RPL 2
22 Leo Ferdiansyah Mnir 1516100377 L 0007570846 Depok 2000-07-21 XII RPL 2
23 Millenia Alfina Dyanti 1516100378 P 0000110283 Depok 2000-01-18 XII RPL 2
24 Muhamad Fadilah 1516100379 L 0006359851 Jakarta 2000-12-23 XII RPL 2
25 Muhammad Aditya Alfiansyah 1516100380 L 0004391712 Depok 2000-08-10 XII RPL 2
26 Muhammad Dahlan Ramadhan 1516100381 L 9997456938 Pandeglang 1999-12-13 XII RPL 2
27 Muhammad Rizky Albilla 1516100384 L 0006254113 Jakarta 2000-03-31 XII RPL 2
28 Muhammad Syahir Rizky 1516100386 L 0003933600 Depok 2000-03-06 XII RPL 2
29 Nizar Aries Prastianto 1516100387 L 0006319223 Jakarta 2000-04-18 XII RPL 2
30 Raffi Fauziantoro 1516100388 L 0003913530 Jakarta 2000-08-15 XII RPL 2
31 Reyditya Dirham Satria 1516100389 L 0003931526 Jakarta 2000-06-29 XII RPL 2
32 Risma Dara Oktaviani 1516100391 P 0009876512 Depok 2000-10-22 XII RPL 2
33 Rivaldi Dwi Putra 1516100392 L 0003931516 Bogor 2000-02-13 XII RPL 2
34 Rizki Alfi Syahri 1516100390 L 0008762355 Depok 2000-09-21 XII RPL 2
35 Rizqi Anugrah Firmansyah 1516100393 L 0007570829 Depok 2000-05-25 XII RPL 2
36 Syifa Rulina Sukma 1516100394 P 0007769970 Depok 2000-07-12 XII RPL 2
37 Veron Vaskarian Karwur 1516100395 L 9998954324 Bekasi 1999-12-19 XII RPL 2
38 Vina Suci Dindayana 1516100396 P 9984970999 Bogor 1998-12-23 XII RPL 2

 

Daftar Peserta Sertifikasi Microsoft Office Specialist

Tahun Pelajaran 2017/2018

XII TEKNIK ELEKTRONIKA INDUSTRI

 
No Nama Siswa NIPD P/L NISN Tempat Tanggal Lahir Rombel
1 Achmad Zahir Gusjalis 1516100001 L 0003933646 Depok 2000-08-01 XII TEI 1
2 Ade Nugroho 1516100002 L 0005652754 Jakarta 2000-09-06 XII TEI 1
3 Adrian Nurysah 1516100003 L 0001101596 Jakarta 2000-05-10 XII TEI 1
4 Dawam Musabbih 1516100005 L 0004739521 Jakarta 2000-03-22 XII TEI 1
5 Dimas Priyanto 1516100006 L 0007570810 Depok 2000-05-04 XII TEI 1
6 Fajar Ariawan 1516100007 L 9995057586 Depok 1999-03-26 XII TEI 1
7 Farhan Hedi Pratama 1516100008 L 0003934850 Kebumen 2000-10-23 XII TEI 1
8 Fatma Nur Fauziah 1516100009 P 0003912960 Depok 2000-12-09 XII TEI 1
9 Fauzan Syahputra 1516100010 L 0005796599 Depok 2000-02-11 XII TEI 1
10 Fauzi Akbar Ramadhan 1516100011 L 0003872066 Depok 2000-01-05 XII TEI 1
11 Fitria Sulistiyani 1516100012 P 0003931587 Jakarta 2000-01-08 XII TEI 1
12 Gunawan 1516100013 L 9986249142 Lampung Tengah 1998-12-27 XII TEI 1
13 Gustav Fa Abdillah 1516100014 L 0004386492 Jombang 2000-07-15 XII TEI 1
14 Imam Nurrofiq 1516100015 L 0005796638 Depok 2000-07-05 XII TEI 1
15 Kartika Nur Endah Anjar Juliati 1516100016 P 0003933643 Depok 2000-07-18 XII TEI 1
16 Maulana Yusuf Ibrahim 1516100017 L 0006319235 Jakarta 2000-08-12 XII TEI 1
17 Maulidya Dwi Yanti 1516100018 P 9991256291 Bogor 1999-06-26 XII TEI 1
18 Mohammad Ilham Rushman Putera 1516100019 L 0003931493 Bogor 1999-10-26 XII TEI 1
19 Muhamad Arief Kurniawan 1516100020 L 9990829438 Depok 1999-07-22 XII TEI 1
20 Muhammad Noor Kholis 1516100023 L 0007570834 Jakarta 2000-06-05 XII TEI 1
21 Muhammad Yahya 1516100024 L 9994129475 Jakarta 1999-09-24 XII TEI 1
22 Novita Wulandari 1516100025 P 0001374547 Jakarta 2000-10-02 XII TEI 1
23 Nubli Marzuki Ramadhan 1516100026 L 0001108222 Jakarta 2000-01-06 XII TEI 1
24 Rafi Naufal 1516100028 L 0003934815 Depok 2000-06-17 XII TEI 1
25 Reggy Renaldy Haryanto 1516100030 L 0004296587 Depok 2000-05-25 XII TEI 1
26 Rezki Ahmad Febian 1516100031 L 0003913576 Jakarta 2000-02-29 XII TEI 1
27 Rifaldi 1516100032 L 9995132674 Tegal 1999-09-13 XII TEI 1
28 Rivaldo Qodrianto 1516100033 L 0005798761 Jakarta 2000-01-02 XII TEI 1
29 Riyan Hidayat 1516100034 L 9977245330 Sukabumi 1997-12-17 XII TEI 1
30 Rizki Arwandani 1516100035 L 0003616202 Cibinong 2000-09-01 XII TEI 1
31 Rizqullah Ishaq 1516100037 L 0003934112 Jakarta 2000-06-27 XII TEI 1
32 Safa Sabian 1516100038 L 9997032451 Jakarta 1999-09-28 XII TEI 1
33 Satrio Herlambang 1516100039 L 9991767275 Jakarta 1999-06-29 XII TEI 1
34 Sultan Fairus 1516100040 L 9981345676 Jakarta 1998-08-09 XII TEI 1
35 Suprisno 1516100041 L 9975076719 Subang 1997-10-07 XII TEI 1

 

Daftar Peserta Sertifikasi Microsoft Office Specialist

Tahun Pelajaran 2017/2018

XII TEKNIK KOMPUTER & JARINGAN 1

 
No Nama Siswa NIPD P/L NISN Tempat Tanggal Lahir Rombel
1 Abdul Aziz Maulana 1516100042 L 9997576071 Karawang 1999-07-26 XII TKJ 1
2 Alfiansyah Eza N Matin 1516100045 L 0009645087 Indramayu 2000-06-11 XII TKJ 1
3 Andre Renaldi 1516100046 L 0003856485 Jakarta 2000-09-12 XII TKJ 1
4 Armandhito Melandrie 1516100048 L 0009133303 Depok 2000-04-07 XII TKJ 1
5 Berliana Nurul Khoiri 1516100049 P 0001337464 Jakarta 2000-08-13 XII TKJ 1
6 Dendi Januar Ramadhan 1516100051 L 0005798565 Depok 2000-01-03 XII TKJ 1
7 Ebit Nurruly Wasis 1516100052 P 9995058198 Depok 1999-05-19 XII TKJ 1
8 Elfira Prilanda 1516100053 P 0002550020 Jakarta 2000-04-03 XII TKJ 1
9 Farhan Erlansyah Harahap 1516100054 L 0003934827 Depok 2000-07-27 XII TKJ 1
10 Futri Triyanti 1516100056 P 0003913821 Depok 2000-01-23 XII TKJ 1
11 Ganang Tri Utama 1516100057 L 0004390896 Jakarta 2000-04-12 XII TKJ 1
12 Ikhwan Saputra 1516100058 L 0007905532 Bogor 2000-02-28 XII TKJ 1
13 Iqbal Safrudin 1516100059 L 0003931554 Depok 2000-02-01 XII TKJ 1
14 Khafi Aswaldi 1516100060 L 9975373270 Jakarta 1997-09-26 XII TKJ 1
15 Lia Rahmawati 1516100061 P 0000673777 Kudus 2000-08-01 XII TKJ 1
16 Mochamad Stanley Kamal 1516100063 L 0003931598 Bandung 2000-09-06 XII TKJ 1
17 Muhamad Fachrul Hidayat 1516100064 L 0001249148 Jakarta 2000-11-21 XII TKJ 1
18 Muhamad Nur Rafli 1516100065 L 0007163505 Bogor 2000-11-02 XII TKJ 1
19 Muhammad Andika Rakasiwi 1516100066 L 0004390912 Depok 2000-08-08 XII TKJ 1
20 Muhammad Harits Nur Hidayatulloh 1516100067 L 0007734620 Jakarta 2000-11-08 XII TKJ 1
21 Muhammad Ichsan 1516100068 L 0006242052 Depok 2000-05-11 XII TKJ 1
22 Muhammad Rizky Yudha Kusuma 1516100069 L 0008715428 Jakarta 2000-06-23 XII TKJ 1
23 Nilam Sari 1516100070 P 0009071750 Depok 2000-09-14 XII TKJ 1
24 Nursyamsi Pratama 1516100071 L 0009929137 Jakarta 2000-07-09 XII TKJ 1
25 Putri Ariwisita 1516100072 P 9991254277 Pandeglang 2000-12-28 XII TKJ 1
26 Rahman Febriyanto 1516100073 L 9995110057 Kakarta 1999-11-19 XII TKJ 1
27 Reza Handono 1516100074 L 9995131217 Jakarta 1999-09-03 XII TKJ 1
28 Shella Tria Amanda Putri 1516100076 P 0003856082 Depok 2000-11-30 XII TKJ 1
29 Taufik Ihsannurdin 1516100077 L 0003910682 Depok 2000-11-07 XII TKJ 1
30 Wahyu Setiawan 1516100078 L 0003856650 Depok 2000-08-08 XII TKJ 1

 

Daftar Peserta Sertifikasi Microsoft Office Specialist

Tahun Pelajaran 2017/2018

XII TEKNIK KOMPUTER & JARINGAN 2

 
No Nama Siswa NIPD P/L NISN Tempat Tanggal Lahir Rombel
1 Abdul Fatah Syawali 1516100081 L 9995134322 Depok 1999-01-19 XII TKJ 2
2 Aditya Muhammmad Azis 1516100082 L 9995134350 Tegal 1999-04-13 XII TKJ 2
3 Ahmad Yani 1516100083 L 0009220519 Depok 2000-01-06 XII TKJ 2
4 Alfidha Rachma Soleha 1516100084 P 0003970651 Depok 2000-11-06 XII TKJ 2
5 Alfin Santoso 1516100085 L 9990799812 Temanggung 1999-07-01 XII TKJ 2
6 Andreas Yahya Dewinner 1516100086 L 0006255261 Jakarta 2000-12-21 XII TKJ 2
7 Asri Kawuryan 1516100087 P 0001689880 Jakarta 2000-07-17 XII TKJ 2
8 Audio Ade Prayoga 1516100088 L 9990647694 Jakarta 1999-08-23 XII TKJ 2
9 Cakra Musa Ibrahim 1516100089 L 9995057607 Depok 1999-06-08 XII TKJ 2
10 Denni Indrajaya 1516100090 L 9995115974 Jakarta 1999-07-15 XII TKJ 2
11 Devina Damayanti 1516100091 P 0003859761 Jakarta 2000-06-07 XII TKJ 2
12 Egi Riyadi Putra 1516100092 L 9990407111 Bandung 1999-10-23 XII TKJ 2
13 Fadhilah Dyah Nareswari 1516100093 P 9999733272 Jakarta 1999-12-07 XII TKJ 2
14 Fadilah Ibrahim 1516100094 L 0009382988 Depok 2000-09-14 XII TKJ 2
15 Ferizal Ramadhan Basyar 1516100096 L 0005796820 Depok 2000-01-07 XII TKJ 2
16 Gilar Satrya Asri 1516100097 L 0003935335 Wonosobo 2000-09-12 XII TKJ 2
17 Gusti Ayu Widiasari 1516100098 P 0005798846 Depok 2000-08-13 XII TKJ 2
18 Ifan Ariansyah 1516100100 L 9995134094 Bogor 1999-10-06 XII TKJ 2
19 Ilham Ramadan 1516100099 L 9995098309 Depok 1999-12-22 XII TKJ 2
20 Kiky Indriawan 1516100101 L 0003856078 Bogor 1999-10-11 XII TKJ 2
21 Lili Amelia 1516100102 P 9984958671 Depok 1998-07-29 XII TKJ 2
22 Manda Arfiansyah Yamin 1516100103 L 0003931456 Bogor 2000-12-07 XII TKJ 2
23 Muhamad Aprianto 1516100105 L 0007793286 Depok 2000-04-06 XII TKJ 2
24 Muhammad Fadil Wicaksana 1516100106 L 0004238386 Jakarta 2000-04-27 XII TKJ 2
25 Muhammad Ibnu Ismail 1516100107 L 0001222922 Jakarta 2000-02-26 XII TKJ 2
26 Muhammad Rafi Arliansyah 1516100108 L 0009720648 Depok 2000-02-27 XII TKJ 2
27 Muhammad Rayhan Muyassar 1516100109 L 0004393906 Depok 2000-06-04 XII TKJ 2
28 Muhammad wildan Tamma 1516100110 L 0004238370 Jakarta 2000-03-26 XII TKJ 2
29 Novia Dwi Sari 1516100111 P 9995134106 Depok 1999-11-24 XII TKJ 2
30 Reva Rizza Rivvany 1516100113 P 9995071578 Bogor 1999-06-02 XII TKJ 2
31 Reza Mahendra 1516100114 L 0004391892 Depok 2000-03-24 XII TKJ 2
32 Siti Rahmah Silviana 1516100116 P 0003934791 Depok 2000-04-06 XII TKJ 2
33 Taufik Rahman 1516100117 L 0003910644 Depok 2000-07-11 XII TKJ 2
34 Wahyudi 1516100118 L 9995131239 Depok 1999-11-18 XII TKJ 2
35 Yeni Rachmadani 1516100119 P 0007754604 Depok 2000-11-29 XII TKJ 2
36 Yuda Alamsyah 1516100120 L 0005798847 Depok 2000-08-23 XII TKJ 2

 

Daftar Peserta Sertifikasi Microsoft Office Specialist

Tahun Pelajaran 2017/2018

XII TEKNIK KOMPUTER & JARINGAN 3

 
No Nama Siswa NIPD P/L NISN Tempat Tanggal Lahir Rombel
1 Abdul Fathoni Fauzi 1516100121 L 9994811273 Depok 1999-12-02 XII TKJ 3
2 Akhmad Irfan 1516100123 L 0003935256 Cirebon 1999-04-26 XII TKJ 3
3 Alifia Septi Rizqiah 1516100124 P 0003871869 Depok 2000-09-10 XII TKJ 3
4 Andara Gading Budi Prasasti 1516100125 P 0003935196 Jakarta 2000-08-12 XII TKJ 3
5 Angga Dwi Wahyudi 1516100126 L 0006324266 Depok 2000-05-25 XII TKJ 3
6 Aura Azzahra Syahputri Simamora 1516100127 P 0003616717 Bekasi 2000-12-04 XII TKJ 3
7 Bagus Abu Fatah 1516100128 L 0003917731 Sukoharjo 1999-09-16 XII TKJ 3
8 Calvin Chang 1516100129 L 9993032717 Pontianak 1999-11-09 XII TKJ 3
9 Dhimas Anwar Putra 1516100130 L 0005798810 Jakarta 2000-05-21 XII TKJ 3
10 Dian Damayanthi 1516100131 P 0008050390 Jakarta 2000-05-20 XII TKJ 3
11 Elang Firza Maulana 1516100132 L 0006213276 Jakarta 2000-06-17 XII TKJ 3
12 Fatoni Abdul Kadir 1516100133 L 0003856644 Kebumen 2000-07-30 XII TKJ 3
13 Ferry Andrian 1516100134 L 9995133426 Jakarta 1999-10-27 XII TKJ 3
14 Firli Fatwaliyah 1516100135 P 0009596170 Jakarta 2000-08-22 XII TKJ 3
15 Hadits Sifa Al Tisa 1516100136 P 0003931814 Jakarta 2000-03-04 XII TKJ 3
16 Hansen Simatupang 1516100137 L 0005656001 Depok 2000-06-30 XII TKJ 3
17 Imam Darmawan 1516100138 L 0009387187 Depok 2000-01-14 XII TKJ 3
18 Jaller Pamungkas 1516100139 L 0003935413 Jakarta 2000-10-30 XII TKJ 3
19 Koirul Nurzali 1516100140 L 0007570828 Trenggalek 2000-05-05 XII TKJ 3
20 Lily Asia 1516100141 P 0003654303 Madura 2000-04-21 XII TKJ 3
21 Mochamad Iqbal Aljihad 1516100143 L 9996920368 Jakarta 1999-07-26 XII TKJ 3
22 Muhamad Fadli Prasetya 1516100144 L 0003856024 Depok 2000-03-22 XII TKJ 3
23 Muhammad Arif 1516100145 L 0007570801 Depok 2000-04-03 XII TKJ 3
24 Muhammad Restu Hadi 1516100146 L 0003913848 Depok 2000-08-29 XII TKJ 3
25 Muhammad Ridwansyah 1516100147 L 0004681276 Depok 2000-07-05 XII TKJ 3
26 Musthofainal Akhyar 1516100148 L 0004752765 Bandung 2000-06-21 XII TKJ 3
27 Mutia Adzizah 1516100149 P 0003872082 Jakarta 2000-03-07 XII TKJ 3
28 Noviana Lestari 1516100150 P 9995113309 Depok 1999-11-20 XII TKJ 3
29 Paskah Mangasitua Sitohang 1516100151 L 0004238390 Jakarta 2000-04-05 XII TKJ 3
30 Rama Septyan 1516100152 L 9996970776 Bekasi 1999-09-20 XII TKJ 3
31 Rio Hafizh Fajri 1516100153 L 0006528766 Jakarta 2000-02-09 XII TKJ 3
32 Ririn Nurhalifah 1516100154 P 9982956601 Aceh Besar 1998-12-18 XII TKJ 3
33 Sahfa Afridin 1516100155 L 0004401213 Depok 2000-04-01 XII TKJ 3
34 Siti Raudatul Janah 1516100156 P 0012955498 Depok 2001-01-10 XII TKJ 3
35 Tri Feri Setiawan 1516100157 L 0003931813 Depok 2000-02-19 XII TKJ 3
36 Wahyudi Iswantoro 1516100158 L 0001101605 Jakarta 2000-11-26 XII TKJ 3
37 Yudhistira Hafizh Daud Respati 1516100159 L 9995597126 Depok 1999-08-04 XII TKJ 3
38 Yunita 1516100160 L 0008588745 Jakarta 2000-06-18 XII TKJ 3

 

Daftar Peserta Sertifikasi Microsoft Office Specialist

Tahun Pelajaran 2017/2018

XII TEKNIK KOMPUTER & JARINGAN 4

 
No Nama Siswa NIPD P/L NISN Tempat Tanggal Lahir Rombel
1 Alan Bekti Prasetyo 1516100163 L 0003910640 Wonogiri 2000-05-19 XII TKJ 4
2 Alvi Triasmara Putra Suciono 1516100164 L 0005798781 Depok 2000-03-20 XII TKJ 4
3 Angga Kuswanto 1516100165 L 0006359793 Jakarta 2000-04-13 XII TKJ 4
4 Anggun Maharani 1516100166 P 0008737004 Depok 2000-08-13 XII TKJ 4
5 Aurel Tasyania 1516100167 P 0003858248 Depok 2000-11-27 XII TKJ 4
6 Dama Sagara 1516100169 L 0001249126 Depok 2000-05-13 XII TKJ 4
7 Dimas Syarif Hidayattullah 1516100170 L 0003933625 Jakarta 2000-05-19 XII TKJ 4
8 Dwi Novi Anti 1516100171 P 9997034798 Bogor 1999-11-08 XII TKJ 4
9 Erick Ibrahim 1516100172 L 0005798765 Kediri 2000-01-18 XII TKJ 4
10 Fathan Husni Al Madani 1516100173 L 0003931811 Depok 2000-02-04 XII TKJ 4
11 Fikri Dwi Ramadhan 1516100174 L 0003856586 Depok 2000-12-02 XII TKJ 4
12 Fisca Amalia Pasya 1516100175 P 9997034129 Depok 1999-12-04 XII TKJ 4
13 Heru Karuniawan 1516100176 L 0003916389 Kebumen 2000-09-16 XII TKJ 4
14 Ila Kurnia Saputri 1516100177 P 0001101599 Depok 2000-07-31 XII TKJ 4
15 Imam Zulfikri 1516100178 L 0016515242 Jakarta 2001-01-18 XII TKJ 4
16 Jaga Rekso Wicaksono 1617110617 L 9992403171 Jakarta 1999-02-08 XII TKJ 4
17 Jonris Dolok Saribu 1516100179 L 0006359806 Depok 2000-07-15 XII TKJ 4
18 Kurniawan 1516100180 L 9981191071 Bogor 1998-08-04 XII TKJ 4
19 Lilis Apriyani Situngkir 1516100181 P 9953160268 Depok 2000-04-30 XII TKJ 4
20 Michael Rizky Setiawan 1516100182 L 0005656621 Depok 2000-02-15 XII TKJ 4
21 Mochammad Fahri Iqbal 1516100183 L 0003910672 Depok 2000-09-25 XII TKJ 4
22 Muhammad Buzla Zuhaili 1516100184 L 0007299312 Jakarta 2000-05-06 XII TKJ 4
23 Muhammad Reza Ramadhan 1516100186 L 9992403364 Jakarta 1999-12-31 XII TKJ 4
24 Muhammad Rifky Ariza 1516100187 L 0002957772 Jakarta 2000-05-01 XII TKJ 4
25 Mutia Adiyah Mahmud 1516100188 P 0005796838 Depok 2000-02-29 XII TKJ 4
26 Nur Anis Harjanti 1516100190 P 9997034774 Magetan, Jawa Timur 1999-09-28 XII TKJ 4
27 Prasna Fikri Oktavian 1516100191 L 0003931532 Jakarta 2000-10-21 XII TKJ 4
28 Risa Septiani 1516100193 P 0003931465 Jakarta 2000-09-02 XII TKJ 4
29 Risala Hadiya Guna 1516100194 L 0003916378 Tangerang 2000-08-19 XII TKJ 4
30 Singgih Abiyuwono 1516100195 L 0004752758 Jakarta 2000-04-22 XII TKJ 4
31 Sri Rahayu Samina 1516100196 P 0001249139 Bogor 2000-09-25 XII TKJ 4
32 Tri Mulyane Rizkynanda 1516100197 L 9997034781 Depok 1999-10-12 XII TKJ 4
33 Widya Dwi Saputro 1516100198 L 0006255159 Depok 2000-05-14 XII TKJ 4
34 Yulian Bagus Sadewo 1516100199 L 0004251655 Depok 2000-07-26 XII TKJ 4
35 Yusricha Risqiany 1516100200 P 9980989700 Depok 1999-04-12 XII TKJ 4

 

Daftar Peserta Sertifikasi Microsoft Office Specialist

Tahun Pelajaran 2017/2018

XII TEKNIK KOMPUTER & JARINGAN 5

 
No Nama Siswa NIPD P/L NISN Tempat Tanggal Lahir Rombel
1 Adam Zuhdi Dzulfiqar 1516100201 L 0005798844 Depok 2000-08-07 XII TKJ 5
2 Ahmad Fauzi Hidayat 1516100202 L 0003859729 Depok 2000-03-15 XII TKJ 5
3 Aldi Yuliadi 1516100203 L 0008503585 Depok 2000-07-31 XII TKJ 5
4 Amir Mahmud Satari 1516100204 L 9997032674 Depok 1999-12-14 XII TKJ 5
5 Anita Cahyanti 1516100205 P 9997456855 Bogor 1999-01-24 XII TKJ 5
6 Ardha Aprila Damara 1516100206 L 0003935167 Bogor 2000-04-03 XII TKJ 5
7 Aurora Fatwari Suryadi 1516100207 P 0004390921 Depok 2000-09-20 XII TKJ 5
8 Bagus Muhammad Sunan Manik Raja 1516100208 L 0014003722 Depok 2001-03-06 XII TKJ 5
9 David Nasrullah 1516100209 L 0003913496 Jakarta 2000-05-06 XII TKJ 5
10 Dimas Wahyu Wahidin 1516100210 L 0005656640 Depok 1999-03-29 XII TKJ 5
11 Dwicky Wijaya Putra 1516100211 L 9995039377 Depok 1999-12-10 XII TKJ 5
12 Dzaki Satriandika 1516100212 L 0003934075 Jakarta 2000-05-16 XII TKJ 5
13 Fadillah Setiawan 1516100213 L 0005798572 Depok 2000-01-23 XII TKJ 5
14 Fathan Riantoni 1516100214 L 0003583095 Jakarta 2000-05-20 XII TKJ 5
15 Firman Arif Budiyansyah 1516100215 L 0008953256 Jakarta 2000-02-22 XII TKJ 5
16 Fitriya Aisah Lestari 1516100216 P 0003935310 Jakarta 2000-01-09 XII TKJ 5
17 Iqbal Al Farabi Rusman 1516100218 L 0003932528 Jakarta 2000-05-22 XII TKJ 5
18 Jose Pardamean Panjaitan 1516100219 L 0004296653 Depok 2000-11-24 XII TKJ 5
19 Kezya Puspita Yuliandrasari 1516100220 P 0003872128 Magetan 2000-07-12 XII TKJ 5
20 Mikhael Fajar Sandiyanto 1516100222 L 9995113302 Depok 1999-09-13 XII TKJ 5
21 Mohamad Wijayanto 1516100223 L 9995403294 Tegal 1999-11-27 XII TKJ 5
22 Muhamad Rizky Maulana 1516100227 L 9977263997 Bogor 1997-03-06 XII TKJ 5
23 Muhammad Al Amin 1516100224 L 9997034505 Depok 1999-09-23 XII TKJ 5
24 Muhammad Dava Rayhansyah 1516100225 L 0006737521 Depok 2000-11-06 XII TKJ 5
25 Muhammad Rifky Darma Putra 1516100226 L 9997385582 Depok 1999-08-04 XII TKJ 5
26 Nanda Teguh Basuki 1516100228 L 0003931809 Depok 2000-01-14 XII TKJ 5
27 Nayla Nabilah 1516100229 P 0003931855 Depok 2000-06-05 XII TKJ 5
28 Putra Akbar Valentino 1516100231 L 0005799040 Depok 2000-01-15 XII TKJ 5
29 Rangga Wijaya 1516100232 L 9984970957 Jakarta 1998-08-02 XII TKJ 5
30 Riski Arief Padillah 1516100233 L 0005796821 Bogor 2000-01-18 XII TKJ 5
31 Saffana Diyana Sukmah 1516100234 P 9994811097 Jakarta 1999-11-16 XII TKJ 5
32 Saparudin Hidayatulloh 1516100235 L 0006255304 Jakarta 2000-05-27 XII TKJ 5
33 Susilowati 1516100236 P 0003933655 Depok 2000-08-30 XII TKJ 5
34 Vega Widya Nagari 1516100237 L 0003912904 Depok 2000-02-14 XII TKJ 5
35 Yoga Rizki Putra Pratama 1516100238 L 0003912664 Madiun 2000-03-10 XII TKJ 5

Daftar Peserta Sertifikasi Microsoft Office Specialist

Tahun Pelajaran 2017/2018

XII TEKNIK KOMPUTER & JARINGAN 6

 

 
No Nama Siswa NIPD P/L NISN Tempat Tanggal Lahir Rombel
1 Ade Sutrisna 1516100239 L 0003933598 Bogor 2000-02-15 XII TKJ 6
2 Ahmad Ibnu Zaky 1516100240 L 0003934840 Depok 2000-09-08 XII TKJ 6
3 Alfa Sandi Saputra 1516100241 L 0003970620 Depok 2000-03-15 XII TKJ 6
4 Amos Agapao Dibrata 1516100242 L 0006941853 Depok 2000-03-25 XII TKJ 6
5 Ardi Putra Nugraha 1516100243 L 0000828609 Jakarta 2000-12-30 XII TKJ 6
6 Ayunisa Nurussyifa 1516100244 P 0003858234 Depok 2000-09-22 XII TKJ 6
7 Bayu Arif Wibowo 1516100245 L 0003912918 Boyolali 2000-04-26 XII TKJ 6
8 Eka Asriana Nur Sufaningtias 1516100248 P 0005656669 Kebumen 2000-06-05 XII TKJ 6
9 Fajrin Hidayah 1516100249 L 0003065277 Bekasi 2000-02-05 XII TKJ 6
10 Fauzan Raul Pamungkas 1516100250 L 0010914557 Depok 2001-02-14 XII TKJ 6
11 Fransiska 1516100252 P 0006254162 Depok 2000-07-18 XII TKJ 6
12 Ichsan Budiman 1516100253 L 0004754437 Jakarta 1999-08-11 XII TKJ 6
13 Iqbal Kurnia Fatulloh 1516100254 L 9995544985 Magetan 1999-11-01 XII TKJ 6
14 Juan Kevin Sebastian 1516100255 L 9993474787 Bogor 1999-01-29 XII TKJ 6
15 Lala Rostia Dewi 1516100256 P 0003911741 Depok 2000-04-15 XII TKJ 6
16 Melda Octaviyanti 1516100257 P 0006255223 Bogor 2000-10-08 XII TKJ 6
17 Mochamad Farrel 1516100258 L 9999514074 Depok 1999-11-21 XII TKJ 6
18 Muhamad Ade Rayhan 1516100260 L 0003931537 Jakarta 2000-08-21 XII TKJ 6
19 Muhamad Riski Fair 1516100261 L 9999998847 Bogor 1999-10-04 XII TKJ 6
20 Muhammad Afif Fahrudin 1516100262 L 9997034740 Kendal 1999-05-09 XII TKJ 6
21 Muhammad Farhan 1516100263 L 0007101237 Jakarta 2000-02-02 XII TKJ 6
22 Muhammad Syaifullah 1516100264 L 9992403192 Jakarta 1999-10-07 XII TKJ 6
23 Nia Anggraini 1516100265 P 0007632066 Depok 2000-08-17 XII TKJ 6
24 Nur Bakhtiar Rizky 1516100266 L 0005341791 Depok 2000-11-14 XII TKJ 6
25 Nurhayati Refa Kalep 1516100267 P 9993572963 Bogor 1999-06-08 XII TKJ 6
26 Qinthar Rayhan Rizqian 1516100268 L 0008896451 Depok 2000-06-10 XII TKJ 6
27 Rifky Haikal Saputra 1516100269 L 0003872122 Depok 2000-06-28 XII TKJ 6
28 Rivki Rivaldi 1516100270 L 0005798628 Depok 2000-05-31 XII TKJ 6
29 Safittri 1516100271 P 0003935163 Depok 2000-03-26 XII TKJ 6
30 Satriya Febriyanto 1516100272 L 0003931451 Jakarta 2001-02-03 XII TKJ 6
31 Syahrul Aditya Pratama 1516100273 L 9995493331 Jakarta 1999-12-21 XII TKJ 6
32 Tassya Damayanti 1516100274 P 0003933660 Jakarta 2000-09-13 XII TKJ 6
33 Vickri Pratama 1516100275 L 0003616208 Depok 2000-09-02 XII TKJ 6
34 Yohanes Hubert Claudio 1516100276 L 0004751535 Jakarta 2000-04-27 XII TKJ 6

Daftar Peserta Sertifikasi Microsoft Office Specialist

Tahun Pelajaran 2017/2018

XII TEKNIK KOMPUTER & JARINGAN 7

 
No Nama Siswa NIPD P/L NISN Tempat Tanggal Lahir Rombel
1 Aditya 1516100277 L 0003916402 Depok 2000-10-18 XII TKJ 7
2 Alfan Al Farizi 1516100279 L 9997575066 Brebes 1999-06-26 XII TKJ 7
3 Andhika Akhmad Prasetio 1516100280 L 0003934109 Depok 2000-06-21 XII TKJ 7
4 Andhika Variansyah 1516100603 L 0004736298 Depok 2000-12-30 XII TKJ 7
5 Aprithalia Azra Qarani 1516100281 P 0008904457 Depok 2000-04-25 XII TKJ 7
6 Ardi Widiyanto 1516100282 L 9997032665 Depok 1999-11-29 XII TKJ 7
7 Bayu Heryu 1516100283 L 0003856061 Jakarta 2000-08-19 XII TKJ 7
8 Bella Fermana Putri 1516100284 P 0003934089 Jakarta 2000-05-15 XII TKJ 7
9 Dean Suwardani 1516100285 L 9995056963 Depok 1998-07-24 XII TKJ 7
10 Eliza Frida Antoni 1516100287 P 0005798827 Depok 2000-07-02 XII TKJ 7
11 Falah Nur Fauzi 1516100288 L 0004296564 Depok 2000-03-18 XII TKJ 7
12 Febrianto Muhammad Lutfi 1516100289 L 0003933216 Klaten 2000-02-02 XII TKJ 7
13 Firman Gamaliel Stefanus 1516100290 L 0003935834 Depok 2000-06-30 XII TKJ 7
14 Frilly Agustin Hanggara Suci 1516100291 P 0003858225 Depok 2000-08-13 XII TKJ 7
15 Ichsan Nur Maarij 1516100292 L 0015899535 Jakarta 2001-01-26 XII TKJ 7
16 Kamrang 1516100294 L 0006414130 Lampung 2000-05-05 XII TKJ 7
17 Leni Purwanti 1516100295 P 9992853314 Jakarta 1999-05-09 XII TKJ 7
18 Melynda Alfiani 1516100296 P 0005796875 Depok 2000-05-28 XII TKJ 7
19 Muhammad Alvi 1516100298 L 0003859767 Depok 2000-09-10 XII TKJ 7
20 Muhammad Fahrudin 1516100299 L 9995131161 Depok 1999-02-17 XII TKJ 7
21 Muhammad Farhan Naufal 1516100300 L 9998954244 Bogor 1999-03-24 XII TKJ 7
22 Muhammad Hadromi Fadilah 1516100301 L 9997034123 Depok 1999-09-12 XII TKJ 7
23 Muhammad Rizaldy Yustin 1516100302 L 0003917482 Depok 2000-04-11 XII TKJ 7
24 Niagara Melati 1516100304 P 0003912953 Depok 2001-01-02 XII TKJ 7
25 Nurmahmudi Ismail 1516100305 L 0015232834 Depok 2000-09-29 XII TKJ 7
26 Paradhisa Aulia Kamal 1516100306 P 0018065109 Jakarta 2001-02-03 XII TKJ 7
27 Radinka Alif Danendra 1516100307 L 0004736217 Jakarta 2000-08-28 XII TKJ 7
28 Reza Aditya Fadila 1516100308 L 0004296553 Depok 2000-03-18 XII TKJ 7
29 Rizki Subhan 1516100309 L 0003910647 Jakarta 2000-06-05 XII TKJ 7
30 Seliana Isabela 1516100310 P 9990439069 Ngawi 1999-07-04 XII TKJ 7
31 Syurya Dharma 1516100311 L 0005403967 Jakarta 2000-06-29 XII TKJ 7
32 Vino Astriano 1516100312 L 0000813900 Bogor 2000-06-01 XII TKJ 7
33 Wahyu Hendrawan 1617110619 L 0006479113 Depok 2000-10-20 XII TKJ 7
34 Winda Amelia 1516100313 P 0006359772 Depok 2000-01-05 XII TKJ 7
35 Yosua Immanuel Pisarahu 1516100314 L 0007962618 Jakarta 2000-07-18 XII TKJ 7